NKS329 KIAH-KFLL

Flight info

Callsign NKS329
Flight time 2h 0m
Altitude 39000
Route MMUGS4 LLA DCT LEV Y290 OCHHO DCT VNECK TEEKY3
Aircraft A320/M-SDE3FGHIRWY/LB1

Departure

Time 2025-09-06 05:26
Airport George Bush Intercontinental Airport (KIAH)

Arrival

Time 2025-09-06 07:27
Airport Fort Lauderdale Hollywood International Airport (KFLL)
Time Latitude Longitude Altitude Speed Heading
2025-09-06 04:38 29.98524 -95.35129 99 ft 0 kts
2025-09-06 05:15 29.98482 -95.35126 98 ft 3 kts 323°
2025-09-06 05:15 29.98468 -95.35096 99 ft 0 kts 270°
2025-09-06 05:20 29.98429 -95.35170 100 ft 12 kts 230°
2025-09-06 05:21 29.98413 -95.35343 100 ft 16 kts 329°
2025-09-06 05:21 29.98625 -95.35473 100 ft 20 kts 331°
2025-09-06 05:22 29.98829 -95.35675 100 ft 0 kts 243°
2025-09-06 05:23 29.98823 -95.35689 101 ft 5 kts 243°
2025-09-06 05:23 29.98740 -95.35758 104 ft 10 kts 156°
2025-09-06 05:24 29.98735 -95.35755 104 ft 0 kts 154°
2025-09-06 05:24 29.98730 -95.35752 104 ft 4 kts 154°
2025-09-06 05:25 29.97858 -95.35217 104 ft 149 kts 152°
2025-09-06 05:25 29.96105 -95.33820 1450 ft 168 kts 132°
2025-09-06 05:26 29.93829 -95.30647 2934 ft 200 kts 132°
2025-09-06 05:27 29.91878 -95.28016 3555 ft 247 kts 131°
2025-09-06 05:27 29.90848 -95.26621 3923 ft 259 kts 131°
2025-09-06 05:27 29.88555 -95.23492 4034 ft 262 kts 128°
2025-09-06 05:28 29.86500 -95.20262 4925 ft 268 kts 125°
2025-09-06 05:28 29.84388 -95.16812 5000 ft 266 kts 125°
2025-09-06 05:29 29.82549 -95.13266 4999 ft 265 kts 107°
2025-09-06 05:29 29.82226 -95.08973 6378 ft 271 kts 94°
2025-09-06 05:30 29.81948 -95.02547 8621 ft 284 kts 94°
2025-09-06 05:31 29.81714 -94.98031 10054 ft 293 kts 100°
2025-09-06 05:31 29.81401 -94.95924 10332 ft 312 kts 101°
2025-09-06 05:31 29.80624 -94.90913 11052 ft 339 kts 101°
2025-09-06 05:32 29.79783 -94.85545 12216 ft 351 kts 101°
2025-09-06 05:32 29.78920 -94.80031 13400 ft 360 kts 100°
2025-09-06 05:33 29.78071 -94.74561 14428 ft 370 kts 100°
2025-09-06 05:33 29.77327 -94.69768 15252 ft 377 kts 100°
2025-09-06 05:34 29.76067 -94.61182 16665 ft 391 kts 100°
2025-09-06 05:34 29.75641 -94.58256 17131 ft 395 kts 100°
2025-09-06 05:35 29.74766 -94.52273 18070 ft 403 kts 100°
2025-09-06 05:35 29.73911 -94.46469 18863 ft 410 kts 100°
2025-09-06 05:36 29.72486 -94.36950 20147 ft 420 kts 101°
2025-09-06 05:36 29.72042 -94.33977 20551 ft 424 kts 100°
2025-09-06 05:37 29.70872 -94.24095 21856 ft 434 kts 97°
2025-09-06 05:37 29.70520 -94.20647 22301 ft 438 kts 97°
2025-09-06 05:38 29.69456 -94.10576 23607 ft 447 kts 97°
2025-09-06 05:39 29.68735 -94.03966 24282 ft 452 kts 94°
2025-09-06 05:39 29.68622 -93.97574 24919 ft 456 kts 90°
2025-09-06 05:40 29.68457 -93.79248 26661 ft 468 kts 90°
2025-09-06 05:42 29.68151 -93.50618 29080 ft 485 kts 90°
2025-09-06 05:44 29.67760 -93.20858 31287 ft 501 kts 90°
2025-09-06 05:46 29.67296 -92.90588 34236 ft 492 kts 89°
2025-09-06 05:49 29.66697 -92.56955 36992 ft 486 kts 89°
2025-09-06 05:51 29.64599 -92.29003 38885 ft 487 kts 101°
2025-09-06 05:53 29.58517 -91.99624 39040 ft 488 kts 102°
2025-09-06 05:55 29.52212 -91.69616 39051 ft 488 kts 101°
2025-09-06 05:56 29.46678 -91.43570 39085 ft 486 kts 102°
2025-09-06 05:59 29.39568 -91.10428 39053 ft 503 kts 103°
2025-09-06 06:00 29.33859 -90.84190 39058 ft 504 kts 103°
2025-09-06 06:02 29.27198 -90.53861 39067 ft 505 kts 103°
2025-09-06 06:05 29.19447 -90.18982 39074 ft 504 kts 102°
2025-09-06 06:07 29.09598 -89.89201 39060 ft 504 kts 111°
2025-09-06 06:08 29.00038 -89.63781 39056 ft 504 kts 112°
2025-09-06 06:11 28.87804 -89.31495 39071 ft 503 kts 111°
2025-09-06 06:12 28.78267 -89.06520 39059 ft 502 kts 111°
2025-09-06 06:15 28.65818 -88.74168 39059 ft 500 kts 111°
2025-09-06 06:16 28.56057 -88.48990 39060 ft 498 kts 111°
2025-09-06 06:19 28.43446 -88.16707 39048 ft 498 kts 111°
2025-09-06 06:21 28.33728 -87.87779 39053 ft 494 kts 104°
2025-09-06 06:23 28.25551 -87.59608 39056 ft 491 kts 104°
2025-09-06 06:25 28.16994 -87.30364 39054 ft 490 kts 105°
2025-09-06 06:27 28.08393 -87.01190 39041 ft 489 kts 105°
2025-09-06 06:29 27.99882 -86.72585 39038 ft 486 kts 105°
2025-09-06 06:31 27.91611 -86.43959 39045 ft 483 kts 106°
2025-09-06 06:32 27.84261 -86.18835 39040 ft 483 kts 106°
2025-09-06 06:35 27.74779 -85.86674 39036 ft 483 kts 107°
2025-09-06 06:36 27.67356 -85.61730 39031 ft 483 kts 107°
2025-09-06 06:39 27.58465 -85.30301 39035 ft 482 kts 99°
2025-09-06 06:40 27.54031 -85.04863 39034 ft 482 kts 100°
2025-09-06 06:43 27.48220 -84.71938 39025 ft 483 kts 100°
2025-09-06 06:44 27.43586 -84.46066 39027 ft 484 kts 101°
2025-09-06 06:47 27.41522 -84.13069 39037 ft 482 kts 92°
2025-09-06 06:48 27.40778 -83.87375 39030 ft 481 kts 94°
2025-09-06 06:50 27.39850 -83.57628 39034 ft 481 kts 94°
2025-09-06 06:52 27.38859 -83.27647 39023 ft 484 kts 96°
2025-09-06 06:54 27.34841 -83.00159 36421 ft 461 kts 111°
2025-09-06 06:56 27.27254 -82.74372 32675 ft 441 kts 120°
2025-09-06 06:58 27.16576 -82.50167 30787 ft 433 kts 118°
2025-09-06 07:00 27.06228 -82.26858 28829 ft 420 kts 118°
2025-09-06 07:03 26.94090 -82.01874 26622 ft 401 kts 136°
2025-09-06 07:04 26.81181 -81.86640 26044 ft 397 kts 135°
2025-09-06 07:06 26.68719 -81.72056 24465 ft 395 kts 135°
2025-09-06 07:07 26.64672 -81.67371 23661 ft 389 kts 135°
2025-09-06 07:07 26.61450 -81.63090 22835 ft 385 kts 127°
2025-09-06 07:08 26.58290 -81.58384 21995 ft 379 kts 127°
2025-09-06 07:08 26.55366 -81.54041 21224 ft 373 kts 127°
2025-09-06 07:09 26.52351 -81.49564 20423 ft 367 kts 127°
2025-09-06 07:09 26.50897 -81.47406 19760 ft 361 kts 127°
2025-09-06 07:09 26.48122 -81.43283 18880 ft 352 kts 127°
2025-09-06 07:10 26.44047 -81.37250 17793 ft 350 kts 127°
2025-09-06 07:11 26.41252 -81.33122 16960 ft 347 kts 128°
2025-09-06 07:11 26.38318 -81.29064 16163 ft 338 kts 130°
2025-09-06 07:12 26.35433 -81.25277 15386 ft 334 kts 130°
2025-09-06 07:12 26.32536 -81.21460 14639 ft 333 kts 130°
2025-09-06 07:12 26.31057 -81.19492 14311 ft 331 kts 130°
2025-09-06 07:13 26.28301 -81.15811 13564 ft 326 kts 130°
2025-09-06 07:13 26.26009 -81.12781 12915 ft 321 kts 130°
2025-09-06 07:14 26.21754 -81.07191 11821 ft 319 kts 130°
2025-09-06 07:15 26.18947 -81.03507 11100 ft 311 kts 130°
2025-09-06 07:15 26.16278 -81.00003 10430 ft 300 kts 130°
2025-09-06 07:16 26.14393 -80.96014 9697 ft 294 kts 103°
2025-09-06 07:16 26.13660 -80.91595 8973 ft 294 kts 101°
2025-09-06 07:16 26.13291 -80.89377 8615 ft 294 kts 101°
2025-09-06 07:17 26.12574 -80.85066 7958 ft 293 kts 101°
2025-09-06 07:17 26.11853 -80.80750 7199 ft 286 kts 101°
2025-09-06 07:18 26.10782 -80.74341 6654 ft 282 kts 101°
2025-09-06 07:19 26.10077 -80.70122 6362 ft 281 kts 101°
2025-09-06 07:19 26.09406 -80.66142 6083 ft 280 kts 101°
2025-09-06 07:20 26.08734 -80.62159 5812 ft 279 kts 102°
2025-09-06 07:20 26.08391 -80.60139 5674 ft 278 kts 102°
2025-09-06 07:20 26.07677 -80.55945 5387 ft 277 kts 102°
2025-09-06 07:21 26.06995 -80.51922 5110 ft 277 kts 102°
2025-09-06 07:21 26.06702 -80.47759 4399 ft 288 kts 90°
2025-09-06 07:22 26.06711 -80.41138 3473 ft 281 kts 91°
2025-09-06 07:23 26.06695 -80.37301 3252 ft 273 kts 91°
2025-09-06 07:23 26.06686 -80.35282 3134 ft 272 kts 91°
2025-09-06 07:23 26.06668 -80.31225 2641 ft 273 kts 91°
2025-09-06 07:24 26.06649 -80.27332 1994 ft 257 kts 91°
2025-09-06 07:25 26.06623 -80.22086 1111 ft 216 kts 91°
2025-09-06 07:25 26.06607 -80.19074 626 ft 178 kts 91°
2025-09-06 07:25 26.06600 -80.17784 405 ft 159 kts 92°
2025-09-06 07:26 26.06583 -80.14827 21 ft 31 kts 90°